| time (UTC) | temp F | wind direction | speed MPH | gust MPH | rain 1hr in | rain 24hr in | rain mn in | humidity % | barometer mb |
| 20260904105211 | 79 | 178 | 2.0 | 8.0 | 0.00 | 0.07 | 0.00 | 74 | 1010.9 |
| 20260904104711 | 79 | 141 | 2.0 | 8.0 | 0.00 | 0.07 | 0.00 | 74 | 1010.8 |
| 20260904104210 | 79 | 196 | 4.0 | 8.0 | 0.00 | 0.07 | 0.00 | 74 | 1010.8 |
| 20260904103710 | 79 | 163 | 3.0 | 7.0 | 0.00 | 0.07 | 0.00 | 74 | 1010.8 |
| 20260904101709 | 80 | 178 | 3.0 | 6.0 | 0.00 | 0.07 | 0.00 | 72 | 1010.8 |
| 20260904101210 | 80 | 190 | 3.0 | 10.0 | 0.00 | 0.07 | 0.00 | 71 | 1010.9 |
| 20260904100710 | 80 | 178 | 5.0 | 10.0 | 0.00 | 0.07 | 0.00 | 71 | 1010.9 |
| 20260904100209 | 80 | 147 | 5.0 | 9.0 | 0.00 | 0.07 | 0.00 | 71 | 1010.8 |
| 20260904095709 | 81 | 166 | 4.0 | 9.0 | 0.00 | 0.07 | 0.00 | 71 | 1010.8 |
| 20260904095209 | 81 | 187 | 4.0 | 10.0 | 0.00 | 0.07 | 0.00 | 71 | 1010.8 |
| 20260904093709 | 81 | 201 | 7.0 | 15.0 | 0.00 | 0.07 | 0.00 | 71 | 1010.6 |
| 20260904093208 | 81 | 171 | 3.0 | 11.0 | 0.00 | 0.07 | 0.00 | 71 | 1010.6 |
| 20260904092708 | 82 | 192 | 5.0 | 13.0 | 0.00 | 0.07 | 0.00 | 69 | 1010.6 |
| 20260904092210 | 82 | 198 | 5.0 | 15.0 | 0.00 | 0.07 | 0.00 | 69 | 1010.5 |
| 20260904091708 | 82 | 209 | 6.0 | 15.0 | 0.00 | 0.07 | 0.00 | 68 | 1010.4 |
| 20260904091209 | 83 | 165 | 5.0 | 14.0 | 0.00 | 0.07 | 0.00 | 68 | 1010.5 |
| 20260904090709 | 83 | 85 | 6.0 | 14.0 | 0.00 | 0.07 | 0.00 | 68 | 1010.4 |
| 20260904090208 | 82 | 226 | 6.0 | 14.0 | 0.00 | 0.07 | 0.00 | 69 | 1010.3 |
| 20260904085708 | 82 | 207 | 8.0 | 14.0 | 0.00 | 0.07 | 0.00 | 70 | 1010.3 |
| 20260904085208 | 81 | 215 | 6.0 | 13.0 | 0.00 | 0.07 | 0.00 | 70 | 1010.2 |
| 20260904084708 | 81 | 198 | 6.0 | 11.0 | 0.00 | 0.07 | 0.00 | 70 | 1010.2 |
| 20260904084208 | 81 | 135 | 6.0 | 13.0 | 0.00 | 0.07 | 0.00 | 69 | 1010.3 |
| 20260904083707 | 82 | 196 | 5.0 | 15.0 | 0.00 | 0.07 | 0.00 | 69 | 1010.3 |
| 20260904083209 | 82 | 221 | 7.0 | 15.0 | 0.00 | 0.07 | 0.00 | 69 | 1010.2 |
| 20260904082707 | 82 | 211 | 7.0 | 13.0 | 0.00 | 0.07 | 0.00 | 68 | 1010.2 |
| 20260904082210 | 81 | 131 | 6.0 | 16.0 | 0.00 | 0.07 | 0.00 | 68 | 1010.2 |
| 20260904081708 | 81 | 178 | 6.0 | 16.0 | 0.00 | 0.07 | 0.00 | 68 | 1010.0 |
| 20260904081208 | 81 | 173 | 6.0 | 15.0 | 0.00 | 0.07 | 0.00 | 69 | 1010.0 |
| 20260904080707 | 81 | 198 | 7.0 | 15.0 | 0.00 | 0.07 | 0.00 | 69 | 1010.0 |
| 20260904080207 | 81 | 196 | 8.0 | 16.0 | 0.00 | 0.07 | 0.00 | 69 | 1010.0 |
| 20260904075707 | 81 | 193 | 8.0 | 16.0 | 0.00 | 0.07 | 0.00 | 68 | 1010.2 |
| 20260904075207 | 82 | 198 | 9.0 | 16.0 | 0.00 | 0.07 | 0.00 | 67 | 1010.2 |
| 20260904074707 | 82 | 169 | 8.0 | 17.0 | 0.00 | 0.07 | 0.00 | 66 | 1010.2 |
| 20260904074207 | 83 | 141 | 8.0 | 17.0 | 0.00 | 0.07 | 0.00 | 65 | 1010.3 |
| 20260904073707 | 83 | 218 | 6.0 | 13.0 | 0.00 | 0.07 | 0.00 | 64 | 1010.3 |
| 20260904073206 | 83 | 238 | 7.0 | 12.0 | 0.00 | 0.07 | 0.00 | 65 | 1010.3 |
| 20260904072706 | 83 | 221 | 5.0 | 12.0 | 0.00 | 0.07 | 0.00 | 64 | 1010.0 |
| 20260904072208 | 83 | 193 | 6.0 | 13.0 | 0.00 | 0.07 | 0.00 | 64 | 1010.2 |
| 20260904071706 | 83 | 205 | 4.0 | 13.0 | 0.00 | 0.07 | 0.00 | 64 | 1010.2 |
| 20260904071206 | 83 | 231 | 6.0 | 14.0 | 0.00 | 0.07 | 0.00 | 64 | 1010.3 |
| 20260904070206 | 83 | 147 | 6.0 | 11.0 | 0.00 | 0.07 | 0.00 | 63 | 1010.2 |
| 20260904065706 | 83 | 221 | 5.0 | 15.0 | 0.00 | 0.07 | 0.00 | 63 | 1010.2 |
| 20260904065206 | 83 | 226 | 4.0 | 15.0 | 0.00 | 0.07 | 0.00 | 63 | 1010.3 |
| 20260904064706 | 83 | 189 | 4.0 | 11.0 | 0.00 | 0.07 | 0.00 | 63 | 1010.3 |
| 20260904064205 | 83 | 196 | 5.0 | 13.0 | 0.00 | 0.07 | 0.00 | 63 | 1010.3 |
| 20260904063705 | 83 | 147 | 5.0 | 13.0 | 0.00 | 0.07 | 0.00 | 63 | 1010.3 |
| 20260904063205 | 83 | 146 | 4.0 | 12.0 | 0.00 | 0.07 | 0.00 | 63 | 1010.2 |
| 20260904062705 | 83 | 202 | 4.0 | 12.0 | 0.00 | 0.07 | 0.00 | 63 | 1010.3 |
| 20260904062206 | 83 | 61 | 5.0 | 10.0 | 0.00 | 0.07 | 0.00 | 63 | 1010.3 |
| 20260904061705 | 83 | 178 | 5.0 | 9.0 | 0.00 | 0.07 | 0.00 | 63 | 1010.2 |
| 20260904061205 | 83 | 147 | 5.0 | 13.0 | 0.00 | 0.07 | 0.00 | 62 | 1010.0 |
| 20260904060705 | 84 | 137 | 6.0 | 13.0 | 0.00 | 0.07 | 0.00 | 62 | 1010.0 |
| 20260904060204 | 84 | 168 | 6.0 | 12.0 | 0.00 | 0.07 | 0.00 | 62 | 1010.2 |
| 20260904055704 | 84 | 218 | 6.0 | 13.0 | 0.00 | 0.07 | 0.00 | 62 | 1010.2 |
| 20260904055204 | 84 | 165 | 7.0 | 13.0 | 0.00 | 0.07 | 0.00 | 62 | 1010.2 |
| 20260904054204 | 84 | 163 | 7.0 | 12.0 | 0.00 | 0.07 | 0.00 | 62 | 1010.0 |
| 20260904053704 | 84 | 173 | 5.0 | 10.0 | 0.00 | 0.07 | 0.00 | 62 | 1010.0 |
| 20260904052703 | 84 | 211 | 5.0 | 13.0 | 0.00 | 0.07 | 0.00 | 62 | 1009.9 |
| 20260904052204 | 84 | 175 | 4.0 | 13.0 | 0.00 | 0.07 | 0.00 | 63 | 1009.8 |
| 20260904051203 | 84 | 135 | 4.0 | 12.0 | 0.00 | 0.07 | 0.00 | 63 | 1009.8 |
| 20260904050700 | 84 | 178 | 4.0 | 16.0 | 0.00 | 0.07 | 0.00 | 63 | 1009.8 |
| 20260904050200 | 84 | 178 | 6.0 | 16.0 | 0.00 | 0.07 | 0.00 | 62 | 1009.8 |
| 20260904045701 | 84 | 183 | 4.0 | 13.0 | 0.00 | 0.07 | 0.07 | 62 | 1009.8 |
| 20260904044700 | 84 | 182 | 5.0 | 9.0 | 0.00 | 0.07 | 0.07 | 62 | 1009.7 |
| 20260904043700 | 85 | 123 | 6.0 | 11.0 | 0.00 | 0.07 | 0.07 | 63 | 1009.7 |
| 20260904043200 | 85 | 225 | 5.0 | 12.0 | 0.00 | 0.07 | 0.07 | 62 | 1009.7 |
| 20260904042200 | 85 | 170 | 5.0 | 12.0 | 0.00 | 0.07 | 0.07 | 62 | 1009.7 |
| 20260904041700 | 85 | 128 | 4.0 | 12.0 | 0.00 | 0.07 | 0.07 | 62 | 1009.7 |
| 20260904040659 | 85 | 132 | 5.0 | 10.0 | 0.00 | 0.07 | 0.07 | 62 | 1009.8 |
| 20260904040159 | 85 | 153 | 5.0 | 13.0 | 0.00 | 0.07 | 0.07 | 62 | 1009.8 |
| 20260904034659 | 85 | 185 | 4.0 | 14.0 | 0.00 | 0.07 | 0.07 | 62 | 1009.8 |
| 20260904033157 | 86 | 221 | 5.0 | 10.0 | 0.00 | 0.07 | 0.07 | 62 | 1009.8 |
| 20260904032657 | 86 | 153 | 5.0 | 11.0 | 0.00 | 0.07 | 0.07 | 62 | 1009.7 |
| 20260904031155 | 86 | 144 | 5.0 | 11.0 | 0.00 | 0.07 | 0.07 | 61 | 1009.7 |
| 20260904030156 | 86 | 158 | 6.0 | 13.0 | 0.00 | 0.07 | 0.07 | 61 | 1009.6 |
| 20260904025655 | 86 | 173 | 4.0 | 12.0 | 0.00 | 0.07 | 0.07 | 62 | 1009.6 |
| 20260904024655 | 86 | 123 | 4.0 | 9.0 | 0.00 | 0.07 | 0.07 | 62 | 1009.6 |
| 20260904024153 | 87 | 178 | 4.0 | 10.0 | 0.00 | 0.07 | 0.07 | 62 | 1009.6 |
| 20260904023153 | 87 | 147 | 4.0 | 12.0 | 0.00 | 0.07 | 0.07 | 61 | 1009.5 |
| 20260904022653 | 87 | 178 | 4.0 | 12.0 | 0.00 | 0.07 | 0.07 | 61 | 1009.5 |
| 20260904022155 | 87 | 187 | 5.0 | 11.0 | 0.00 | 0.07 | 0.07 | 61 | 1009.5 |
| 20260904021653 | 87 | 124 | 5.0 | 10.0 | 0.00 | 0.07 | 0.07 | 61 | 1009.5 |
| 20260904021153 | 87 | 141 | 5.0 | 10.0 | 0.00 | 0.07 | 0.07 | 61 | 1009.4 |
| 20260904020653 | 87 | 177 | 4.0 | 10.0 | 0.00 | 0.07 | 0.07 | 61 | 1009.3 |
| 20260904015653 | 88 | 177 | 3.0 | 10.0 | 0.00 | 0.07 | 0.07 | 60 | 1009.4 |
| 20260904014652 | 88 | 148 | 3.0 | 11.0 | 0.00 | 0.07 | 0.07 | 59 | 1009.3 |
| 20260904014152 | 88 | 188 | 4.0 | 11.0 | 0.00 | 0.07 | 0.07 | 59 | 1009.1 |
| 20260904013651 | 88 | 142 | 4.0 | 9.0 | 0.00 | 0.07 | 0.07 | 59 | 1009.1 |
| 20260904013152 | 89 | 165 | 4.0 | 10.0 | 0.00 | 0.07 | 0.07 | 59 | 1009.0 |
| 20260904012152 | 89 | 178 | 3.0 | 12.0 | 0.00 | 0.07 | 0.07 | 58 | 1009.0 |
| 20260904011651 | 89 | 153 | 3.0 | 12.0 | 0.00 | 0.07 | 0.07 | 58 | 1008.9 |
| 20260904011151 | 89 | 144 | 4.0 | 14.0 | 0.00 | 0.07 | 0.07 | 58 | 1008.8 |
| 20260904010650 | 90 | 131 | 5.0 | 14.0 | 0.00 | 0.07 | 0.07 | 58 | 1008.7 |
| 20260904010150 | 90 | 128 | 4.0 | 12.0 | 0.00 | 0.07 | 0.07 | 58 | 1008.7 |
| 20260904005650 | 90 | 178 | 6.0 | 11.0 | 0.00 | 0.07 | 0.07 | 58 | 1008.7 |
| 20260904005151 | 90 | 146 | 5.0 | 11.0 | 0.00 | 0.07 | 0.07 | 58 | 1008.7 |
| 20260904004150 | 91 | 140 | 3.0 | 9.0 | 0.00 | 0.07 | 0.07 | 57 | 1008.5 |
| 20260904003650 | 91 | 210 | 3.0 | 12.0 | 0.00 | 0.07 | 0.07 | 56 | 1008.4 |
| 20260904003149 | 91 | 138 | 4.0 | 12.0 | 0.00 | 0.07 | 0.07 | 56 | 1008.4 |
| 20260904002650 | 92 | 212 | 4.0 | 10.0 | 0.00 | 0.07 | 0.07 | 55 | 1008.4 |
| 20260904001649 | 92 | 175 | 6.0 | 12.0 | 0.00 | 0.07 | 0.07 | 54 | 1008.4 |
| 20260904001149 | 92 | 166 | 5.0 | 12.0 | 0.00 | 0.07 | 0.07 | 54 | 1008.3 |
| 20260904000650 | 92 | 138 | 5.0 | 12.0 | 0.00 | 0.07 | 0.07 | 54 | 1008.4 |
| 20260903235649 | 93 | 162 | 7.0 | 16.0 | 0.00 | 0.07 | 0.07 | 53 | 1008.3 |
| 20260903235149 | 93 | 187 | 4.0 | 12.0 | 0.00 | 0.07 | 0.07 | 53 | 1008.3 |
| 20260903234648 | 93 | 165 | 7.0 | 16.0 | 0.00 | 0.07 | 0.07 | 52 | 1008.3 |
| 20260903234148 | 93 | 178 | 8.0 | 16.0 | 0.00 | 0.07 | 0.07 | 52 | 1008.3 |
| 20260903233148 | 94 | 163 | 7.0 | 13.0 | 0.00 | 0.07 | 0.07 | 52 | 1008.2 |
| 20260903232648 | 94 | 171 | 4.0 | 10.0 | 0.00 | 0.07 | 0.07 | 53 | 1008.3 |
| 20260903232149 | 94 | 182 | 5.0 | 12.0 | 0.00 | 0.07 | 0.07 | 52 | 1008.2 |
| 20260903231643 | 94 | 177 | 7.0 | 15.0 | 0.00 | 0.07 | 0.07 | 51 | 1008.1 |
| 20260903231144 | 94 | 166 | 10.0 | 16.0 | 0.00 | 0.07 | 0.07 | 51 | 1008.1 |
| 20260903230643 | 94 | 144 | 8.0 | 16.0 | 0.00 | 0.07 | 0.07 | 51 | 1008.2 |
| 20260903230143 | 94 | 186 | 8.0 | 17.0 | 0.00 | 0.07 | 0.07 | 51 | 1008.2 |
| 20260903225142 | 95 | 171 | 6.0 | 12.0 | 0.00 | 0.07 | 0.07 | 52 | 1008.1 |
| 20260903224642 | 95 | 226 | 5.0 | 11.0 | 0.00 | 0.07 | 0.07 | 52 | 1008.1 |
| 20260903224141 | 95 | 171 | 5.0 | 11.0 | 0.00 | 0.07 | 0.07 | 53 | 1008.1 |
| 20260903223641 | 95 | 201 | 5.0 | 14.0 | 0.00 | 0.07 | 0.07 | 53 | 1008.1 |
| 20260903222641 | 95 | 178 | 6.0 | 12.0 | 0.00 | 0.07 | 0.07 | 53 | 1008.1 |
| 20260903222142 | 95 | 173 | 5.0 | 13.0 | 0.00 | 0.07 | 0.07 | 53 | 1008.1 |
| 20260903221641 | 95 | 208 | 9.0 | 13.0 | 0.00 | 0.07 | 0.07 | 52 | 1008.1 |
| 20260903221140 | 95 | 200 | 7.0 | 18.0 | 0.00 | 0.07 | 0.07 | 53 | 1008.1 |
| 20260903220640 | 95 | 161 | 5.0 | 18.0 | 0.00 | 0.07 | 0.07 | 52 | 1008.2 |
| 20260903215639 | 95 | 182 | 7.0 | 17.0 | 0.00 | 0.07 | 0.07 | 52 | 1008.1 |
| 20260903215139 | 95 | 160 | 10.0 | 17.0 | 0.00 | 0.07 | 0.07 | 51 | 1008.3 |
| 20260903214638 | 96 | 155 | 7.0 | 15.0 | 0.00 | 0.07 | 0.07 | 52 | 1008.0 |
| 20260903214139 | 96 | 203 | 6.0 | 12.0 | 0.00 | 0.07 | 0.07 | 52 | 1008.1 |
| 20260903213638 | 96 | 207 | 6.0 | 12.0 | 0.00 | 0.07 | 0.07 | 51 | 1008.1 |
| 20260903212637 | 96 | 128 | 8.0 | 16.0 | 0.00 | 0.07 | 0.07 | 51 | 1008.1 |
| 20260903212138 | 96 | 202 | 9.0 | 19.0 | 0.00 | 0.07 | 0.07 | 50 | 1008.1 |
| 20260903211636 | 96 | 209 | 7.0 | 19.0 | 0.00 | 0.07 | 0.07 | 49 | 1008.1 |
| 20260903211136 | 96 | 126 | 11.0 | 19.0 | 0.00 | 0.07 | 0.07 | 49 | 1008.1 |
| 20260903210136 | 95 | 187 | 8.0 | 17.0 | 0.00 | 0.07 | 0.07 | 50 | 1008.2 |
| 20260903205636 | 95 | 229 | 6.0 | 16.0 | 0.00 | 0.07 | 0.07 | 51 | 1008.3 |
| 20260903205135 | 95 | 155 | 7.0 | 16.0 | 0.00 | 0.07 | 0.07 | 51 | 1008.1 |
| 20260903204636 | 95 | 193 | 8.0 | 15.0 | 0.00 | 0.07 | 0.07 | 50 | 1008.3 |
| 20260903204136 | 96 | 167 | 8.0 | 15.0 | 0.00 | 0.07 | 0.07 | 51 | 1008.3 |
| 20260903203634 | 96 | 183 | 8.0 | 13.0 | 0.00 | 0.07 | 0.07 | 52 | 1008.4 |
| 20260903203135 | 96 | 75 | 8.0 | 13.0 | 0.00 | 0.07 | 0.07 | 51 | 1008.4 |
| 20260903202634 | 96 | 185 | 5.0 | 16.0 | 0.00 | 0.07 | 0.07 | 51 | 1008.4 |
| 20260903202136 | 95 | 162 | 8.0 | 16.0 | 0.00 | 0.07 | 0.07 | 51 | 1008.6 |
| 20260903201634 | 95 | 198 | 9.0 | 16.0 | 0.00 | 0.07 | 0.07 | 50 | 1008.6 |
| 20260903201134 | 95 | 193 | 6.0 | 14.0 | 0.00 | 0.07 | 0.07 | 52 | 1008.7 |
| 20260903200634 | 94 | 182 | 7.0 | 14.0 | 0.00 | 0.07 | 0.07 | 53 | 1008.7 |
| 20260903200133 | 94 | 205 | 7.0 | 18.0 | 0.00 | 0.07 | 0.07 | 55 | 1008.7 |
| 20260903195633 | 94 | 198 | 5.0 | 18.0 | 0.00 | 0.07 | 0.07 | 55 | 1008.8 |
| 20260903195134 | 94 | 223 | 7.0 | 19.0 | 0.00 | 0.07 | 0.07 | 56 | 1008.8 |
| 20260903194633 | 94 | 190 | 10.0 | 19.0 | 0.00 | 0.07 | 0.07 | 55 | 1008.8 |
| 20260903194133 | 93 | 140 | 7.0 | 13.0 | 0.00 | 0.07 | 0.07 | 56 | 1009.0 |
| 20260903193633 | 93 | 207 | 5.0 | 14.0 | 0.00 | 0.07 | 0.07 | 57 | 1009.0 |
| 20260903193132 | 93 | 195 | 6.0 | 14.0 | 0.00 | 0.07 | 0.07 | 57 | 1009.1 |
| 20260903192632 | 93 | 156 | 5.0 | 14.0 | 0.00 | 0.07 | 0.07 | 57 | 1009.1 |
| 20260903192134 | 93 | 162 | 6.0 | 15.0 | 0.00 | 0.07 | 0.07 | 58 | 1009.0 |
| 20260903191632 | 92 | 178 | 7.0 | 15.0 | 0.00 | 0.07 | 0.07 | 57 | 1009.0 |
| 20260903190632 | 92 | 153 | 7.0 | 16.0 | 0.00 | 0.07 | 0.07 | 58 | 1009.1 |
| 20260903190131 | 92 | 169 | 8.0 | 15.0 | 0.00 | 0.07 | 0.07 | 58 | 1009.3 |
| 20260903185631 | 92 | 154 | 5.0 | 13.0 | 0.00 | 0.07 | 0.07 | 58 | 1009.4 |
| 20260903184630 | 91 | 147 | 6.0 | 14.0 | 0.00 | 0.07 | 0.07 | 58 | 1009.4 |
| 20260903184130 | 91 | 189 | 7.0 | 16.0 | 0.00 | 0.07 | 0.07 | 58 | 1009.7 |
| 20260903183630 | 91 | 162 | 7.0 | 16.0 | 0.00 | 0.07 | 0.07 | 59 | 1009.7 |
| 20260903183130 | 91 | 151 | 6.0 | 13.0 | 0.00 | 0.07 | 0.07 | 58 | 1009.7 |
| 20260903182630 | 91 | 195 | 6.0 | 12.0 | 0.00 | 0.07 | 0.07 | 60 | 1009.8 |
| 20260903182132 | 91 | 187 | 5.0 | 12.0 | 0.00 | 0.07 | 0.07 | 60 | 1009.8 |
| 20260903181630 | 91 | 195 | 7.0 | 12.0 | 0.00 | 0.07 | 0.07 | 58 | 1010.0 |
| 20260903181129 | 91 | 126 | 7.0 | 13.0 | 0.00 | 0.07 | 0.07 | 57 | 1009.9 |
| 20260903180129 | 90 | 196 | 6.0 | 14.0 | 0.00 | 0.07 | 0.07 | 59 | 1010.3 |
| 20260903175628 | 90 | 217 | 5.0 | 17.0 | 0.00 | 0.07 | 0.07 | 58 | 1010.4 |
| 20260903175129 | 90 | 182 | 8.0 | 17.0 | 0.00 | 0.07 | 0.07 | 58 | 1010.3 |
| 20260903174628 | 90 | 135 | 6.0 | 11.0 | 0.00 | 0.07 | 0.07 | 59 | 1010.3 |
| 20260903172628 | 88 | 187 | 5.0 | 13.0 | 0.00 | 0.07 | 0.07 | 62 | 1010.4 |
| 20260903172129 | 88 | 195 | 6.0 | 12.0 | 0.00 | 0.07 | 0.07 | 61 | 1010.2 |
| 20260903171127 | 87 | 147 | 5.0 | 12.0 | 0.00 | 0.07 | 0.07 | 64 | 1010.3 |
| 20260903170627 | 87 | 175 | 6.0 | 11.0 | 0.00 | 0.07 | 0.07 | 65 | 1010.3 |
| 20260903170126 | 86 | 225 | 5.0 | 10.0 | 0.00 | 0.07 | 0.07 | 67 | 1010.4 |
| 20260903165626 | 85 | 189 | 5.0 | 10.0 | 0.00 | 0.07 | 0.07 | 68 | 1010.4 |
| 20260903165125 | 84 | 186 | 6.0 | 10.0 | 0.00 | 0.07 | 0.07 | 69 | 1010.5 |
| 20260903164626 | 83 | 123 | 4.0 | 9.0 | 0.00 | 0.07 | 0.07 | 71 | 1010.5 |
| 20260903164126 | 83 | 137 | 4.0 | 9.0 | 0.00 | 0.07 | 0.07 | 70 | 1010.6 |
| 20260903163626 | 83 | 178 | 4.0 | 10.0 | 0.00 | 0.07 | 0.07 | 69 | 1010.6 |
| 20260903163126 | 83 | 135 | 5.0 | 11.0 | 0.00 | 0.07 | 0.07 | 68 | 1010.6 |
| 20260903162625 | 83 | 178 | 4.0 | 7.0 | 0.00 | 0.07 | 0.07 | 69 | 1010.6 |
| 20260903162126 | 83 | 175 | 3.0 | 9.0 | 0.00 | 0.07 | 0.07 | 70 | 1010.8 |
| 20260903161124 | 82 | 144 | 4.0 | 9.0 | 0.00 | 0.07 | 0.07 | 70 | 1010.5 |
| 20260903160625 | 82 | 128 | 4.0 | 9.0 | 0.00 | 0.07 | 0.07 | 70 | 1010.6 |
| 20260903160124 | 82 | 128 | 4.0 | 8.0 | 0.00 | 0.07 | 0.07 | 70 | 1010.5 |
| 20260903155624 | 82 | 178 | 2.0 | 9.0 | 0.00 | 0.07 | 0.07 | 70 | 1010.5 |
| 20260903155123 | 82 | 137 | 4.0 | 9.0 | 0.00 | 0.07 | 0.07 | 70 | 1010.5 |
| 20260903154624 | 82 | 118 | 4.0 | 8.0 | 0.00 | 0.07 | 0.07 | 71 | 1010.5 |
| 20260903154123 | 81 | 51 | 3.0 | 11.0 | 0.00 | 0.07 | 0.07 | 71 | 1010.5 |
| 20260903153123 | 81 | 165 | 6.0 | 10.0 | 0.00 | 0.07 | 0.07 | 72 | 1010.4 |
| 20260903152622 | 81 | 178 | 4.0 | 10.0 | 0.00 | 0.07 | 0.07 | 73 | 1010.6 |
| 20260903152125 | 81 | 160 | 6.0 | 12.0 | 0.00 | 0.07 | 0.07 | 73 | 1010.5 |
| 20260903151622 | 81 | 129 | 4.0 | 12.0 | 0.00 | 0.07 | 0.07 | 72 | 1010.5 |
| 20260903150622 | 80 | 130 | 6.0 | 10.0 | 0.01 | 0.07 | 0.07 | 75 | 1010.6 |
| 20260903145621 | 80 | 108 | 2.0 | 5.0 | 0.01 | 0.07 | 0.07 | 78 | 1010.7 |
| 20260903145121 | 80 | 126 | 2.0 | 3.0 | 0.01 | 0.07 | 0.07 | 77 | 1010.9 |
| 20260903144620 | 80 | 51 | 1.0 | 2.0 | 0.01 | 0.07 | 0.07 | 78 | 1011.1 |
| 20260903144121 | 80 | 239 | 1.0 | 4.0 | 0.01 | 0.07 | 0.07 | 77 | 1011.1 |
| 20260903143621 | 79 | 129 | 1.0 | 5.0 | 0.01 | 0.07 | 0.07 | 76 | 1010.9 |
| 20260903143121 | 79 | 51 | 1.0 | 5.0 | 0.01 | 0.07 | 0.07 | 77 | 1010.7 |
| 20260903142620 | 79 | 134 | 2.0 | 7.0 | 0.01 | 0.07 | 0.07 | 77 | 1010.6 |
| 20260903142119 | 79 | 137 | 3.0 | 9.0 | 0.01 | 0.07 | 0.07 | 76 | 1010.5 |
| 20260903141618 | 80 | 51 | 2.0 | 9.0 | 0.01 | 0.07 | 0.07 | 75 | 1010.5 |
| 20260903141119 | 80 | 156 | 4.0 | 8.0 | 0.01 | 0.07 | 0.07 | 75 | 1010.5 |
| 20260903140617 | 79 | 192 | 4.0 | 9.0 | 0.00 | 0.06 | 0.06 | 77 | 1010.4 |
| 20260903140117 | 79 | 221 | 4.0 | 9.0 | 0.00 | 0.06 | 0.06 | 79 | 1010.3 |
| 20260903135617 | 78 | 163 | 3.0 | 7.0 | 0.00 | 0.06 | 0.06 | 82 | 1010.3 |
| 20260903135117 | 78 | 157 | 2.0 | 4.0 | 0.01 | 0.06 | 0.06 | 84 | 1010.4 |
| 20260903134616 | 76 | 205 | 1.0 | 4.0 | 0.01 | 0.06 | 0.06 | 86 | 1010.3 |
| 20260903134116 | 76 | 51 | 1.0 | 4.0 | 0.03 | 0.06 | 0.06 | 86 | 1010.2 |
| 20260903133616 | 75 | 165 | 1.0 | 4.0 | 0.03 | 0.06 | 0.06 | 86 | 1010.3 |
| 20260903133117 | 75 | 142 | 2.0 | 4.0 | 0.04 | 0.06 | 0.06 | 86 | 1010.3 |
| 20260903132616 | 75 | 131 | 2.0 | 6.0 | 0.05 | 0.06 | 0.06 | 87 | 1010.4 |
| 20260903132115 | 75 | 121 | 2.0 | 6.0 | 0.06 | 0.06 | 0.06 | 87 | 1010.5 |
| 20260903131615 | 75 | 193 | 2.0 | 7.0 | 0.06 | 0.06 | 0.06 | 86 | 1010.5 |
| 20260903131115 | 74 | 144 | 4.0 | 7.0 | 0.06 | 0.06 | 0.06 | 86 | 1010.5 |
| 20260903130616 | 74 | 139 | 1.0 | 3.0 | 0.06 | 0.06 | 0.06 | 86 | 1010.6 |
| 20260903125614 | 75 | 162 | 1.0 | 3.0 | 0.06 | 0.06 | 0.06 | 85 | 1010.6 |
| 20260903125113 | 75 | 102 | 1.0 | 3.0 | 0.05 | 0.05 | 0.06 | 85 | 1010.7 |
| 20260903124613 | 75 | 129 | 2.0 | 4.0 | 0.05 | 0.05 | 0.05 | 84 | 1010.9 |
| 20260903123113 | 76 | 279 | 3.0 | 7.0 | 0.02 | 0.02 | 0.02 | 83 | 1011.3 |
| 20260903122113 | 76 | 137 | 0.0 | 2.0 | 0.00 | 0.00 | 0.00 | 82 | 1010.8 |
| 20260903121612 | 76 | 26 | 1.0 | 2.0 | 0.00 | 0.00 | 0.00 | 81 | 1010.8 |
| 20260903121112 | 76 | 9 | 1.0 | 2.0 | 0.00 | 0.00 | 0.00 | 81 | 1010.9 |
| 20260903120613 | 76 | 9 | 1.0 | 3.0 | 0.00 | 0.00 | 0.00 | 81 | 1010.8 |
| 20260903120112 | 76 | 344 | 2.0 | 3.0 | 0.00 | 0.00 | 0.00 | 80 | 1010.8 |
| 20260903115612 | 76 | 325 | 0.0 | 4.0 | 0.00 | 0.00 | 0.00 | 79 | 1010.7 |
| 20260903115112 | 77 | 70 | 2.0 | 4.0 | 0.00 | 0.00 | 0.00 | 79 | 1010.6 |
| 20260903114612 | 77 | 129 | 2.0 | 3.0 | 0.00 | 0.00 | 0.00 | 79 | 1010.6 |
| 20260903114113 | 77 | 105 | 1.0 | 3.0 | 0.00 | 0.00 | 0.00 | 78 | 1010.6 |
| 20260903113611 | 77 | 9 | 0.0 | 4.0 | 0.00 | 0.00 | 0.00 | 78 | 1010.7 |
| 20260903113111 | 77 | 93 | 1.0 | 5.0 | 0.00 | 0.00 | 0.00 | 77 | 1010.5 |
| 20260903112611 | 78 | 111 | 3.0 | 5.0 | 0.00 | 0.00 | 0.00 | 76 | 1010.4 |
| 20260903112111 | 78 | 149 | 2.0 | 4.0 | 0.00 | 0.00 | 0.00 | 76 | 1010.3 |
| 20260903111610 | 78 | 153 | 2.0 | 4.0 | 0.00 | 0.00 | 0.00 | 75 | 1010.2 |
| 20260903111110 | 78 | 146 | 2.0 | 5.0 | 0.00 | 0.00 | 0.00 | 75 | 1010.2 |
| 20260903110610 | 78 | 142 | 3.0 | 7.0 | 0.00 | 0.00 | 0.00 | 75 | 1010.2 |